Dewpoint
72 73 73 75 74 74 74 74 74 74 73 73 73 73 73 74 74 74 75 75 74 74 73 73 73 73 72 72 71 71 71 70 70 69 68 67 67 66 66 66 65 65 66 65 66 66 69 69 69 69 70 71 70 70 69 70 70 70 70 69 69 69 68 68 68 68 67 66 65 65 67 68 66 65 64 63 63 62 62 62 62 59 60 62 65
71 73 73 73 74 74 74 74 74 73 73 73 73 73 73 74 74 74 74 74 74 73 73 73 73 73 72 72 71 71 70 70 69 69 68 68 67 67 66 66 65 65 65 65 66 68 68 69 70 70 70 70 70 69 69 69 69 69 69 69 69 69 68 68 68 68 67 66 66 65 65 65 65 64 63 63 65 65 63 63 63 64 65 66 66
71 72 72 72 74 74 74 74 73 73 73 73 73 73 73 73 74 74 74 74 73 73 73 73 73 72 72 71 71 71 70 70 69 68 68 67 67 66 66 66 65 65 65 66 67 68 68 69 70 70 71 70 71 70 69 70 69 69 69 68 67 67 67 68 68 68 67 65 64 65 64 63 63 62 62 64 67 68 65 64 64 65 64 66 65
70 71 72 74 74 74 74 73 73 73 73 73 73 73 73 73 73 74 74 74 73 73 73 72 72 72 72 71 71 71 70 69 69 68 67 67 66 66 65 65 64 64 66 68 68 68 69 69 70 70 70 70 70 69 70 70 69 69 69 68 68 67 67 67 67 67 67 65 64 63 62 59 60 61 62 66 67 67 67 67 66 66 65 65 64
70 70 73 73 72 74 74 73 73 73 73 73 73 73 73 72 73 73 74 73 73 73 73 72 72 72 71 71 71 70 70 69 69 68 67 66 66 66 65 64 64 68 68 68 68 68 69 70 70 69 70 69 69 70 69 69 69 69 68 68 68 67 66 65 65 67 67 66 65 61 58 59 60 62 64 65 66 66 66 66 65 65 65 65 64
69 71 72 71 71 73 74 74 73 73 73 73 73 73 73 73 73 72 73 73 73 72 72 72 72 71 71 71 71 70 70 69 68 67 67 67 67 65 64 64 65 65 69 68 68 68 68 69 69 70 70 70 69 69 69 69 69 69 68 68 68 67 67 66 66 66 67 67 66 65 57 60 60 62 65 66 66 66 66 65 65 65 64 64 63
71 71 71 70 70 72 74 74 73 73 73 73 73 73 73 73 73 72 72 73 72 72 72 72 71 71 71 71 71 70 70 69 68 68 68 67 66 66 65 65 65 64 67 68 68 68 68 68 69 69 69 69 69 69 69 69 69 69 68 68 67 67 67 66 66 66 65 67 65 65 58 60 62 63 66 66 66 65 64 63 63 63 64 62 62
71 72 70 69 70 73 74 74 73 73 73 73 73 73 73 73 73 72 72 72 72 72 71 71 71 71 71 71 71 70 69 69 68 67 67 67 66 65 64 64 64 64 64 66 68 68 67 68 69 69 68 69 68 68 69 69 69 69 68 68 67 67 66 67 67 66 67 63 61 62 58 58 61 64 67 66 66 65 64 62 62 63 63 62 61
71 70 70 69 70 74 74 74 74 73 73 73 73 73 73 73 73 73 72 71 71 71 71 71 71 71 71 71 71 70 69 69 68 67 67 67 67 66 66 66 65 64 64 64 68 68 67 67 68 69 69 69 69 69 69 69 69 68 68 67 67 67 67 67 68 67 67 65 63 57 57 60 62 64 67 67 65 64 64 64 63 62 61 61 61
69 69 69 69 71 74 74 74 73 73 73 73 73 73 73 73 73 72 72 72 71 71 71 71 71 71 71 71 70 70 69 69 68 68 67 67 68 67 67 67 67 65 64 64 64 67 67 67 68 68 69 69 68 69 69 69 69 68 68 67 67 67 67 68 68 69 65 63 55 59 62 64 62 63 66 65 64 63 63 63 62 61 60 61 61
68 68 66 69 73 74 74 74 73 73 73 73 73 73 73 73 73 73 72 72 72 71 71 71 72 71 71 71 70 70 69 69 68 68 67 68 67 67 67 68 67 68 67 64 64 65 68 67 67 67 68 68 69 69 69 69 69 68 68 68 68 68 69 68 68 66 63 63 56 60 61 65 62 64 65 64 63 63 63 62 62 61 60 59 60
69 69 68 70 74 74 74 73 73 73 73 73 73 74 73 73 73 73 72 72 71 71 71 71 71 71 71 70 70 70 70 69 68 68 68 68 67 67 68 68 68 68 68 65 63 64 68 67 67 68 68 69 69 69 69 69 68 68 67 68 69 68 69 69 67 66 64 52 53 59 59 60 61 63 65 64 63 63 63 62 61 60 59 59 61
69 66 69 73 74 74 74 73 73 73 73 73 73 73 73 73 73 73 72 72 71 71 71 71 71 71 70 71 71 71 70 69 68 68 68 67 67 68 68 68 67 67 66 65 64 65 67 67 68 68 68 68 68 68 68 67 67 67 67 67 67 68 68 70 68 65 55 47 61 61 61 61 62 65 64 63 62 62 63 62 60 59 60 61 60
70 68 70 73 72 74 74 73 73 73 73 73 73 73 73 73 73 72 72 72 71 71 71 71 71 70 71 71 71 70 70 70 68 68 68 68 68 68 68 68 69 68 66 65 67 67 68 68 68 68 68 67 67 68 67 67 67 67 67 68 68 70 70 69 68 66 57 52 61 62 62 63 62 64 63 62 61 61 61 62 60 59 61 60 59
69 72 71 72 72 73 74 73 73 73 73 73 73 73 73 73 73 72 72 72 72 71 72 71 71 70 72 71 71 71 70 70 69 68 68 68 68 68 68 68 69 68 67 68 68 68 68 68 68 68 68 68 68 68 68 68 68 69 68 69 70 70 69 67 63 61 50 48 62 62 62 62 65 64 63 62 61 61 62 63 61 59 59 60 58
71 72 72 71 72 72 72 74 73 73 73 73 73 73 73 73 73 72 72 72 72 72 71 71 70 70 71 71 71 71 71 70 69 68 68 68 68 68 68 69 70 69 68 68 68 68 68 68 68 68 68 68 68 68 69 69 69 69 70 69 69 70 70 69 66 64 60 51 60 62 62 63 65 64 62 61 61 63 64 63 62 60 60 60 59
71 71 71 71 72 70 71 71 72 73 73 73 73 73 73 73 73 73 72 72 72 71 71 71 70 71 72 71 71 71 71 71 70 69 68 68 68 68 69 69 69 69 69 68 68 68 68 68 68 68 69 69 70 69 69 69 69 69 69 69 68 69 69 70 68 66 55 52 61 61 61 62 64 64 63 62 61 64 63 62 62 60 60 60 60
71 70 69 71 71 70 70 71 71 72 71 72 73 73 73 73 73 73 72 72 71 71 71 71 70 71 72 71 71 71 70 70 70 70 69 68 68 68 69 68 69 68 69 68 68 69 69 68 68 69 69 69 69 70 69 70 69 68 69 69 69 69 70 71 68 65 53 56 60 61 62 64 65 63 63 63 61 60 61 62 62 60 60 60 60
69 70 69 70 70 70 70 70 71 69 71 72 72 72 73 73 72 71 71 71 71 70 70 71 70 71 72 71 71 71 69 70 70 69 71 69 68 68 69 68 68 69 68 68 69 69 69 69 69 69 69 69 70 68 70 69 69 68 69 70 70 70 71 70 67 63 50 58 59 60 62 67 67 66 63 64 62 61 63 63 62 60 58 57 60
70 69 69 69 70 71 70 69 71 66 70 71 71 72 72 72 71 70 69 71 69 69 69 70 70 71 72 72 71 70 69 69 70 69 70 69 69 68 69 68 68 68 68 68 68 69 69 69 69 69 69 69 69 69 69 69 68 68 68 69 70 70 69 69 65 63 56 58 60 60 66 67 66 64 64 63 62 61 63 62 62 61 59 57 59
69 69 68 69 71 70 70 69 69 69 69 70 71 71 71 72 71 70 70 70 69 69 69 68 70 70 71 72 71 70 70 69 68 69 69 68 69 68 69 68 68 68 68 68 68 69 69 69 69 69 69 69 69 69 69 68 68 67 68 69 69 68 68 67 64 63 56 59 59 63 67 66 64 65 64 63 62 62 61 61 62 62 59 57 60
66 66 68 69 70 70 69 69 68 67 68 70 70 71 71 71 70 69 69 69 68 69 68 69 70 69 70 70 70 70 70 69 69 69 69 69 68 68 69 68 68 68 68 68 68 68 69 69 69 68 69 69 69 68 65 67 68 67 66 68 68 66 66 65 64 63 56 56 61 66 67 66 65 64 65 63 63 63 61 62 62 62 60 59 60
65 65 66 69 69 69 69 68 67 67 68 68 69 69 70 71 69 69 70 69 69 69 69 68 68 68 69 69 70 70 69 69 69 69 69 69 67 68 69 68 69 69 69 68 68 68 68 68 68 68 68 69 68 65 62 60 64 67 67 67 65 65 65 64 62 57 56 58 61 67 66 65 65 64 63 62 63 63 62 61 61 62 60 58 59
65 65 65 68 67 67 68 69 68 68 69 68 69 69 70 70 69 69 70 69 69 68 68 68 68 69 68 69 69 70 70 69 69 69 68 71 68 68 68 68 68 68 69 68 68 68 68 67 68 68 68 67 63 61 59 59 60 63 64 63 62 64 64 63 61 59 57 59 62 67 65 65 64 63 63 62 62 64 62 61 61 61 61 60 59
66 66 65 67 68 68 68 69 70 69 69 69 69 69 70 70 69 68 70 71 69 69 68 68 68 68 69 70 68 70 69 70 70 69 69 68 69 68 67 67 67 67 68 67 67 65 68 66 66 68 66 62 59 58 58 59 62 60 61 62 63 63 63 62 63 63 58 59 63 66 66 65 64 64 63 63 63 63 62 62 61 61 61 60 59
67 65 65 67 68 69 69 69 70 70 71 70 70 69 70 69 69 69 67 68 70 69 69 68 69 69 69 70 70 71 70 70 69 70 69 68 68 68 69 67 67 65 67 66 65 65 66 65 63 63 62 60 57 57 57 60 61 61 61 62 63 63 62 64 64 62 60 62 65 66 66 65 65 65 64 63 63 63 62 62 62 61 61 61 60
65 65 66 67 69 70 70 69 68 69 70 70 70 69 69 70 69 69 68 68 69 68 67 68 70 70 70 71 71 70 69 70 69 68 69 69 68 68 69 69 70 70 67 65 63 63 65 65 63 61 59 58 55 55 56 57 57 56 59 59 62 62 65 64 64 63 61 61 65 67 66 66 66 65 64 63 63 63 62 62 62 61 62 62 61
66 66 66 67 68 69 70 69 68 69 70 69 69 68 70 69 69 68 69 68 66 66 67 68 70 71 71 71 71 70 69 69 69 68 68 69 68 67 68 69 69 70 70 64 62 62 63 63 63 60 56 54 53 55 55 51 58 57 57 62 60 60 63 64 61 63 63 62 64 66 67 66 66 66 65 64 63 63 63 62 62 61 61 62 61
67 67 66 68 69 69 70 69 68 69 70 69 68 68 69 69 70 69 69 70 68 68 69 70 70 70 70 69 69 69 68 68 69 67 68 67 68 68 69 68 68 69 67 65 61 60 61 61 60 59 56 53 54 56 55 53 63 62 61 57 58 58 60 63 64 63 64 62 62 65 67 67 67 67 65 65 65 64 63 63 62 62 61 61 61
68 68 68 68 69 70 70 69 67 68 68 69 69 69 69 69 69 69 69 69 69 69 70 70 69 70 69 69 69 69 70 68 68 69 67 68 69 68 69 69 69 69 67 65 62 59 60 59 57 57 55 54 55 57 59 54 55 58 57 59 58 60 62 62 63 64 65 63 62 65 67 67 67 67 66 66 65 65 64 63 63 62 62 60 61
69 68 68 67 69 70 70 70 68 68 69 69 69 69 69 69 70 69 69 69 69 70 69 69 68 69 69 69 69 69 69 69 68 68 68 68 68 68 69 70 69 67 67 65 63 60 62 60 58 60 58 56 55 56 57 55 57 54 56 54 59 63 63 64 62 63 62 65 64 64 65 67 68 67 67 66 66 65 65 64 64 63 63 60 60
69 69 68 68 69 70 70 70 69 69 69 68 69 68 68 69 69 69 69 69 70 69 69 68 69 68 69 69 69 69 70 69 67 67 67 67 68 67 69 69 68 68 67 65 63 59 61 57 57 59 60 59 57 57 56 58 55 52 54 53 58 64 63 66 63 61 63 65 64 63 64 65 68 68 68 66 67 66 66 65 64 64 64 63 62
68 70 69 70 70 70 70 70 70 69 69 68 68 68 70 68 68 68 69 69 70 70 69 69 69 69 69 69 69 69 70 69 68 67 67 68 69 69 68 69 69 69 68 66 63 62 62 61 61 58 57 58 58 55 53 54 56 56 61 54 58 58 61 60 65 65 63 64 65 64 64 64 65 68 68 67 66 66 66 66 65 65 65 64 63
68 68 70 70 70 70 70 70 70 69 68 68 68 68 69 69 68 68 69 69 70 70 69 69 69 70 69 69 69 69 69 70 69 69 69 70 69 68 68 68 68 68 68 66 63 61 60 58 56 57 58 56 59 58 61 54 55 60 63 60 65 64 62 60 63 65 65 64 65 66 64 63 64 65 67 68 67 66 66 66 66 65 65 64 63
69 69 69 70 70 69 70 69 70 70 69 68 68 67 68 68 68 68 68 68 68 68 69 69 69 69 69 68 68 69 68 68 69 69 68 69 69 69 69 68 69 68 67 66 64 62 62 61 58 53 58 63 58 56 55 59 57 58 64 67 65 63 66 64 63 63 64 65 66 66 67 65 64 64 66 66 68 67 67 66 66 66 66 65 64
70 70 70 71 70 70 70 69 70 70 70 69 68 67 67 67 68 68 67 67 68 68 68 68 68 69 68 68 68 68 68 68 69 69 69 68 68 68 68 69 69 69 69 67 66 62 61 61 61 64 63 56 57 54 59 60 62 65 69 68 70 67 66 67 66 63 64 64 67 67 69 69 67 65 67 66 66 67 68 67 67 66 66 65 64
70 71 70 70 70 70 69 70 69 70 70 70 68 67 65 67 66 67 67 66 67 67 67 67 68 68 68 67 68 68 68 68 68 68 69 68 68 68 69 69 69 70 70 68 66 64 63 57 65 65 63 61 51 49 54 65 66 67 68 68 68 70 67 67 65 65 65 64 65 66 66 67 69 68 67 67 64 64 67 68 67 67 67 66 66
70 71 71 70 70 70 69 70 70 70 70 70 69 66 65 65 65 66 67 66 66 67 67 67 67 67 68 68 69 69 68 67 67 68 69 68 68 68 69 69 69 69 69 68 67 66 63 64 64 63 59 57 55 51 60 64 65 67 67 67 69 69 67 68 69 69 64 62 66 65 66 66 68 68 68 67 64 64 64 67 68 67 67 67 67
70 71 71 71 71 70 69 70 70 70 70 70 70 68 65 65 66 66 66 67 67 67 68 67 67 67 68 68 68 69 69 67 68 68 69 68 68 68 68 68 68 68 68 68 66 67 67 67 68 69 69 66 64 66 66 65 66 65 66 67 67 68 70 69 68 67 65 62 65 64 67 69 68 66 67 67 67 66 65 64 66 66 66 67 67
70 71 71 71 70 70 69 70 70 69 70 70 69 69 67 65 65 66 65 66 67 67 68 67 67 67 68 68 68 68 69 68 68 69 68 67 67 67 67 68 68 68 67 66 66 67 66 67 67 67 67 66 64 67 67 67 67 66 67 67 68 68 67 68 68 66 66 67 66 66 65 68 66 65 65 66 67 67 67 64 65 64 63 66 68
69 71 70 70 69 68 69 68 69 69 69 68 67 67 66 67 67 66 65 66 67 67 68 68 67 68 67 68 68 69 68 68 68 67 67 67 67 67 66 67 68 68 68 67 67 67 67 68 68 68 67 66 65 67 67 67 66 66 68 67 68 68 68 68 67 65 64 67 67 65 65 67 66 65 65 66 67 67 68 66 63 63 63 64 67
66 70 70 70 70 69 69 69 69 69 69 68 68 68 67 66 67 67 67 66 66 67 67 67 68 68 68 68 68 68 68 68 68 66 67 67 65 65 65 65 67 67 68 68 68 68 68 67 67 67 66 66 65 64 68 65 64 64 63 65 66 68 68 67 65 64 64 65 66 68 68 65 68 67 66 67 68 68 68 68 67 66 70 70 65
66 69 70 70 69 69 69 69 69 68 69 69 69 67 68 68 67 67 67 67 67 68 67 68 68 68 69 68 68 68 68 67 67 66 66 66 67 67 66 67 66 68 68 68 68 67 68 66 66 66 66 66 66 68 67 65 64 64 66 64 62 61 65 66 67 66 65 66 66 66 67 66 64 67 68 68 68 68 69 70 70 70 70 69 68
67 68 70 69 68 68 69 69 69 68 68 69 69 68 69 69 69 69 69 68 67 68 69 69 68 68 68 68 68 68 68 67 67 67 68 67 67 66 66 66 67 68 68 67 68 68 68 67 66 67 67 65 66 65 68 66 67 64 61 61 62 61 59 61 62 64 64 65 66 67 66 66 68 68 69 67 67 68 67 69 69 69 68 69 69
67 66 66 68 68 68 69 69 69 68 68 69 69 69 69 69 69 69 69 69 69 68 67 67 67 68 68 68 68 68 67 67 68 67 67 68 67 66 66 66 67 68 68 67 67 68 68 67 67 67 66 65 63 64 65 66 66 66 66 62 61 59 58 62 61 66 68 66 63 67 68 68 67 69 68 68 67 68 68 68 68 69 68 69 69
66 67 65 67 68 69 69 69 69 68 68 69 69 69 68 68 68 67 67 67 67 67 66 66 66 66 66 68 68 68 68 67 66 67 66 68 67 67 66 66 68 68 68 68 68 69 68 67 68 67 66 66 64 64 63 66 66 66 65 69 66 63 61 63 62 60 65 67 67 67 67 68 68 69 67 67 66 67 68 67 67 68 68 69 69
65 68 68 67 67 68 69 69 68 68 68 69 69 69 69 68 67 67 67 67 66 67 67 68 67 67 67 68 68 68 67 67 67 66 66 67 68 67 67 68 68 68 69 68 68 68 67 67 68 67 66 67 66 63 63 63 66 65 67 67 67 66 65 64 61 62 59 64 67 67 67 66 69 67 67 67 67 66 68 67 66 68 69 69 69
65 67 69 68 68 67 69 69 68 68 68 68 68 69 68 68 67 67 67 67 66 67 67 68 68 68 67 67 67 68 67 66 67 66 67 66 66 66 67 67 67 68 68 68 68 68 67 67 68 67 67 66 65 64 63 65 63 63 67 66 66 66 66 65 65 63 61 59 62 65 67 67 67 68 68 67 67 68 67 69 67 66 67 68 68
65 67 69 68 67 67 66 69 69 68 68 68 68 68 68 68 68 67 67 67 66 67 67 67 67 68 67 67 67 67 67 67 67 67 66 65 66 67 66 67 67 68 67 67 68 68 67 67 67 66 65 66 66 65 65 64 64 64 66 65 66 66 66 66 65 65 62 60 59 61 63 67 67 68 68 68 69 68 69 68 68 67 67 67 68
66 66 68 70 67 65 66 68 68 68 68 68 68 67 68 68 68 67 67 66 67 66 67 67 67 67 67 67 67 67 67 67 67 67 67 66 66 67 67 68 68 67 67 66 67 67 67 67 66 66 66 66 65 65 65 64 65 65 67 67 65 65 65 65 63 64 63 62 60 61 63 63 63 65 67 67 67 70 69 68 66 67 68 68 68
66 67 67 68 69 67 67 67 68 68 68 68 68 68 67 67 67 67 67 66 66 66 66 66 66 67 67 67 67 67 67 67 67 67 67 66 66 67 67 68 67 67 67 67 67 67 67 67 66 66 66 65 65 65 64 65 65 66 67 67 66 65 64 62 63 63 63 62 61 60 62 63 64 63 65 66 67 69 69 69 68 67 68 68 68